www.pogodaiklimat.ru

АРХИВ ПОГОДЫ в Бетеле

Время (UTC), дата Ветер
(напр.,м/с)
 
Видим.   Явления Облачность Т
(С)
Тd
(С)
f
(%)
Тe
(С)
Тes
(С)
Комфортность

P
(гПа)

Po
(гПа)
Тmin
(С)
Tmax
(С)
R
(мм)
SD
(см)
10:53 17.08 С  16 км    10/10 150 м  +13.9  +12.8  93  +12  +12    1032.6  1027.7  +13.9  +15.0  0.8   
11:32 17.08 С  16 км    10/10 180 м  +13.3  +12.8  97  +12  +12      1027.7         
11:50 17.08 С  16 км    10/10 180 м  +13.0  +12.0  94  +11  +11      1027.7         
11:53 17.08 С  16 км    10/10 210 м  +13.3  +12.2  93  +11  +11    1032.7  1027.7         
12:30 17.08 С  16 км    10/5 240 м
[средняя] 
+12.8  +11.7  93  +11  +11      1027.7         
12:35 17.08 С  16 км    10/8 240 м
[средняя] 
+12.8  +11.7  93  +11  +11      1028.1         
12:53 17.08 С  16 км    5/5 210 м
[средняя] 
+12.2  +11.7  97  +10  +10    1032.7  1027.7         
13:44 17.08 С  16 км    8/8 210 м  +11.7  +11.1  96  +9  +9      1027.7         
13:53 17.08 С  16 км    8/8 210 м  +11.1  +10.6  97  +8  +8    1032.9  1028.1         
14:11 17.08 С  16 км    5/0 6000 м
[средняя] 
+10.6  +9.4  92  +8  +8      1028.1         
14:53 17.08 С  16 км    5/0 6000 м
[средняя] 
+10.0  +8.3  89  +7  +7    1033.1  1028.4         
15:53 17.08 С  16 км    ясно  +10.0  +8.9  93  +7  +8    1033.2  1028.4         
16:53 17.08 С  16 км    ясно  +11.7  +8.9  83  +9  +10    1033.4  1028.4  +9.4  +13.9     
17:53 17.08 С  16 км    ясно  +12.2  +8.9  80  +10  +11    1033.5  1028.8         
18:53 17.08 С  16 км    ясно  +13.3  +9.4  77  +11  +12    1033.6  1028.8         
19:53 17.08 С  16 км    ясно  +15.0  +7.8  62  +13  +16    1033.5  1028.8         
20:53 17.08 СВ  6
{10} 
16 км    ясно  +16.1  +7.2  56  +15  +17    1033.1  1028.1         
21:53 17.08 С  8
{12} 
16 км    ясно  +16.1  +6.7  54  +14  +15    1033.2  1028.4         
22:53 17.08 С  8
{12} 
16 км    ясно  +16.7  +7.2  53  +15  +16    1032.7  1027.7  +11.1  +16.7     
23:53 17.08 С  8
{11} 
16 км    ясно  +16.7  +7.8  56  +15  +16    1032.1  1027.1         
00:53 18.08 С  8
{10} 
16 км    ясно  +17.2  +8.3  56  +16  +17    1031.7  1026.7         
01:53 18.08 С  16 км    ясно  +17.2  +7.8  54  +16  +16    1031.4  1026.7         
02:53 18.08 СВ  8
{11} 
16 км    ясно  +17.2  +7.8  54  +16  +16    1031.0  1026.1         
03:53 18.08 С  16 км    ясно  +16.7  +8.3  58  +15  +16    1030.9  1026.1         
04:53 18.08 С  16 км    ясно  +15.0  +8.9  67  +14  +14    1030.8  1026.1  +15.0  +17.2     
05:53 18.08 С  16 км    ясно  +13.3  +8.9  75  +11  +11    1030.6  1025.7         
06:53 18.08 С  16 км    ясно  +12.2  +8.3  77  +10  +10    1030.6  1025.7         
07:53 18.08 С  16 км    ясно  +11.7  +8.9  83  +9  +9    1030.3  1025.4         
08:53 18.08 С  16 км    ясно  +11.1  +8.3  83  +8  +8    1030.0  1025.0         
09:53 18.08 С  16 км    ясно  +10.6  +7.8  83  +7  +7    1029.6  1024.7         
10:53 18.08 С  16 км    ясно  +10.0  +7.2  83  +7  +7    1029.5  1024.7  +10.0  +15.0     
11:53 18.08 С  16 км    ясно  +9.4  +6.7  83  +6  +6    1029.2  1024.4         
12:53 18.08 С  16 км    ясно  +8.3  +6.1  86  +5  +5    1028.7  1023.7         
13:53 18.08 С  16 км    ясно  +8.3  +6.1  86  +5  +5    1028.3  1023.4         
14:53 18.08 С  16 км    ясно  +8.3  +6.1  86  +4  +4    1028.0  1023.4         
15:53 18.08 С  16 км    ясно  +9.4  +6.1  80  +6  +6    1027.9  1023.0         
16:53 18.08 С  16 км    ясно  +10.6  +6.7  77  +7  +7    1028.0  1023.0  +7.8  +10.6     
17:53 18.08 С  8
{11} 
16 км    ясно  +12.2  +6.7  69  +9  +9    1027.7  1023.0         
18:53 18.08 С  7
{11} 
16 км    ясно  +13.9  +6.7  62  +11  +12    1027.0  1022.0         
19:53 18.08 СВ  8
{11} 
16 км    ясно  +15.6  +6.1  53  +14  +14    1026.6  1021.7         
20:53 18.08 С  16 км    ясно  +16.1  +6.1  51  +14  +15    1026.2  1021.3         
21:53 18.08 СВ  9
{13} 
16 км    ясно  +17.2  +6.1  48  +16  +16    1025.8  1021.0         
22:53 18.08 СВ  9
{12} 
16 км    ясно  +18.3  +5.6  43  +17  +18    1025.1  1020.3  +10.6  +18.3     
23:53 18.08 СВ  7
{11} 
16 км    ясно  +18.3  +5.0  41  +18  +19    1024.6  1019.7         
00:53 19.08 С  9
{12} 
16 км    ясно  +18.9  +5.0  40  +18  +19    1023.7  1019.0         
01:53 19.08 С  16 км    ясно  +18.3  +5.0  41  +18  +18    1023.0  1018.3         
02:53 19.08 СВ  16 км    ясно  +17.8  +4.4  41  +17  +18    1022.6  1017.6         
03:53 19.08 С  16 км    ясно  +16.1  +5.6  50  +15  +15    1022.2  1017.3         

 

Местоположение метеостанции Bethel Airport: широта 60.7797 долгота -161.8378 высота над уровнем моря 38 м.

В архиве по умолчанию представлена погода в Бетеле за последние 1-2 суток. Обновление информации о фактической погоде в базе происходит ежечасно! Архивные данные за месяц целиком и за предыдущие месяцы Вы можете получить, выбрав интересующий диапазон дат из раскрывающегося списка и нажав кнопку "Ввод!".

Внимание! Архив погоды МЕТАР в базе сайта в настоящее время начинается c 1 января 2011 г. Нет смысла пытаться выбрать более раннюю дату.

Внимание! Время в таблицах - всемирное. Для получения местного времени необходимо прибавить поправку, которая в Бетеле равна -9 ч.

Ветер - указаны скорость ветра в м/с и направление, откуда дует ветер: С - северный, СВ - северо-восточный, В - восточный, ЮВ - юго-восточный, Ю - южный, ЮЗ - юго-западный, З - западный, СЗ - северо-западный.
Видимость - горизонтальная дальность видимости в метрах или километрах. При видимости от 1 до 10 км при отсутствии осадков обычно наблюдается дымка, при ухудшении видимости до 1 км и менее - туман. В сухую погоду видимость может ухудшаться дымом, пылью или мглою.
Атмосферные явления - указаны явления, наблюдавшиеся в указанный момент времени.
Облачность - указаны через наклонную черту верхняя и нижняя облачность в баллах и высота нижней границы облаков в метрах. Внимание: облачность, как и прочие метеорологические величины в США измеряются автоматическими метеостанциями. Указанные значения в баллах носят условный характер и показывают процент времени, в течение которого, в среднем, лазерный луч высотомера отражался от облаков обратно.
T - Температура воздуха - температура, измеренная на высоте 2 м над землей.
Td - Температура точки росы - температура, при понижении до которой содержащийся в воздухе водяной пар достигнет насыщения.
f - Относительная влажность воздуха - влажноcть воздуха, измеренная на высоте 2 м над землей.
Te - Эффективная температура - температура, которую ощущает одетый по сезону человек в тени. Характеристика душности погоды. При расчете учитывается влияние влажности воздуха и скорости ветра на теплоощущения человека.
Tes - Эффективная температура на солнце - температура, которую ощущает человек, с поправкой на солнечный нагрев. Характеристика знойности погоды. Зависит от высоты солнца над горизонтом, облачности и скорости ветра. Ночью, в пасмурную погоду, а также при ветре 12 м/с и более поправка равна нулю.
P - Атмосферное давление - приведенное к уровню моря атмосферное давление.
Po - Атмосферное давление - измеренное на уровне метеостанции атмосферное давление.
Tmin - Минимальная температура - минимум температуры воздуха на высоте 2 м над землей.
Tmax - Максимальная температура - максимум температуры воздуха на высоте 2 м над землей.
R - Количество осадков - Количество выпавших осадков за 3 или 6 часов, мм.
SD - Снежный покров - Высота снежного покрова, см.